Погода в Мячкове

Россия / Владимирская область     56°20′56″N   39°03′08″E
темп.,
°C
ветер,
м/с
пор.,
м/с
влажн.,
%
обл.,
%
осадки,
мм/ч
давл.,
гПа
погр.,
м
19 апреля, пн
пн1900:00+6всв5128697 0.0 1024609
03:00+5всв4987100 0.2 1025495
06:00+3всв51084100 0.0 1025523
09:00+5всв5969100 0.0 1026679
12:00+7всв686298 0.0 10261083
15:00+8всв5757100 0.0 10261273
18:00+7всв5955100 0.0 10251385
21:00+5всв41056100 0.0 1026817
20 апреля, вт
вт2000:00+3всв51158100 0.0 1025840
03:00+2всв51262100 0.0 1025646
06:00+1всв51166100 0.0 1024641
09:00+1в51177100 0.8 1024638
12:00+3в51086100 0.3 1023741
15:00+3в51295100 1.4 1021840
18:00+2в51396100 0.3 1019740
21:00+3в61597100 1.2 1016963
21 апреля, ср
ср2100:00+3в71788100 4.2 10121066
03:00+2в71797100 11.2 10081067
06:00+2вюв61697100 2.7 1004904
09:00+4вюв61596100 3.2 1003881
12:00+6вюв61495100 3.5 1001881
15:00+6юв51196100 4.3 1001728
18:00+3ююз71397100 0.6 1005881
21:00+3ююз61189100 0.6 10091162
22 апреля, чт
чт2200:00+4ю51192100 0.1 1011649
03:00+4ю41094100 0.1 1012635
06:00+3ю41094100 0.1 1013600
09:00+5ююз41090100 0.1 1014910
12:00+9юз5969100 0.1 10151326
15:00+10ююз5867100 0.5 10161325
18:00+10ююз377095 0.1 1017261
21:00+6ююв388679 0.1 1018135
23 апреля, пт
пт2300:00+5ююв3109567 0.0 1017222
03:00+5ююв399725 0.0 1017200
06:00+5ююв3109718 0.0 1018261
09:00+10ю488036 0.0 1017530
12:00+14ю696024 0.1 10161421
15:00+15ююв6106042 1.8 10141742
18:00+13ююв6136550 0.9 10131233
21:00+10ююв61474100 0.9 1012836